Weather History for Ortonville, MN

Change the Weather History Date:

Thursday, January 10, 2013

  Actual Average (KAQP) Record (KAQP)
Temperature  
Mean Temperature 32 °F -  
Max Temperature 41 °F 18 °F 55 °F (2012)
Min Temperature 24 °F 2 °F -11 °F (1997)
Degree Days  
Heating Degree Days 32    
Moisture  
Dew Point 27 °F    
Average Humidity 72    
Maximum Humidity 93    
Minimum Humidity 52    
Precipitation  
Precipitation 0.26 in - - ()
Sea Level Pressure  
Sea Level Pressure 29.90 in    
Wind  
Wind Speed 13 mph (SSE)    
Max Wind Speed 23 mph    
Max Gust Speed 30 mph    
Visibility 8 miles    
Events Rain    
Averages and records for this station are not official NWS values.
T = Trace of Precipitation, MM = Missing Value Source: NWS Daily Summary

Daily Weather History Graph

Daily Weather History Graph

Search for Another Location

Airport:

Trip Planner

Search our weather history database for the weather conditions in past years. The results will help you decide how hot, cold, wet, or windy it might be!

Date:

Astronomy

Jan. 10, 2013 Rise Set
Actual Time 8:03 AM CST 5:03 PM CST
Civil Twilight 7:30 AM CST 5:36 PM CST
Nautical Twilight 6:53 AM CST 6:13 PM CST
Astronomical Twilight 6:17 AM CST 6:49 PM CST
Moon 6:44 AM CST (1/10) 4:13 PM CST (1/10)
Length of Visible Light 10h 06m
Length of Day
9h 00m
Waning Crescent, 2% of the Moon is Illuminated
Jan 10
Waning Crescent
Jan 11
New
Jan 18
First Quarter
Jan 26
Full
Feb 3
Last Quarter

Hourly Weather History & Observations

Time (CST) Temp. Windchill Dew Point Humidity Pressure Visibility Wind Dir Wind Speed Gust Speed Precip Events Conditions
12:14 AM 24.8 °F 16.1 °F 21.2 °F 86% 30.08 in 10.0 mi SE 8.1 mph - N/A   Clear
12:34 AM 24.8 °F 15.3 °F 21.2 °F 86% 30.08 in 10.0 mi SSE 9.2 mph - N/A   Clear
12:54 AM 26.6 °F 19.1 °F 21.2 °F 80% 30.08 in 10.0 mi SSE 6.9 mph - N/A   Clear
1:14 AM 30.2 °F 20.8 °F 24.8 °F 80% 30.09 in 10.0 mi SSE 11.5 mph - N/A   Clear
1:33 AM 33.8 °F 25.3 °F 24.8 °F 70% 30.09 in 10.0 mi South 11.5 mph - N/A   Clear
1:54 AM 35.6 °F 27.5 °F 24.8 °F 65% 30.09 in 10.0 mi South 11.5 mph - N/A   Clear
2:14 AM 35.6 °F 27.1 °F 26.6 °F 70% 30.09 in 10.0 mi South 12.7 mph - N/A   Clear
2:33 AM 35.6 °F 26.6 °F 24.8 °F 65% 30.08 in 10.0 mi South 13.8 mph - N/A   Clear
2:54 AM 37.4 °F 29.8 °F 26.6 °F 65% 30.08 in 10.0 mi South 11.5 mph - N/A   Clear
3:14 AM 37.4 °F 30.3 °F 26.6 °F 65% 30.08 in 10.0 mi South 10.4 mph - N/A   Clear
3:33 AM 37.4 °F 30.3 °F 24.8 °F 60% 30.08 in 10.0 mi South 10.4 mph - N/A   Clear
3:54 AM 37.4 °F 30.8 °F 26.6 °F 65% 30.07 in 10.0 mi SSE 9.2 mph 17.3 mph N/A   Clear
4:13 AM 37.4 °F 30.3 °F 26.6 °F 65% 30.06 in 10.0 mi South 10.4 mph 16.1 mph N/A   Clear
4:34 AM 37.4 °F 30.3 °F 24.8 °F 60% 30.05 in 10.0 mi South 10.4 mph - N/A   Clear
4:54 AM 39.2 °F 30.5 °F 26.6 °F 61% 30.04 in 10.0 mi South 16.1 mph 24.2 mph N/A   Clear
5:13 AM 39.2 °F 30.5 °F 26.6 °F 61% 30.03 in 10.0 mi South 16.1 mph 21.9 mph N/A   Clear
5:34 AM 41.0 °F 32.8 °F 26.6 °F 57% 30.02 in 10.0 mi South 16.1 mph 23.0 mph N/A   Clear
5:54 AM 41.0 °F 33.1 °F 26.6 °F 57% 30.02 in 10.0 mi SSW 15.0 mph 26.5 mph N/A   Clear
6:34 AM 41.0 °F 33.5 °F 26.6 °F 57% 30.02 in 10.0 mi SSW 13.8 mph 24.2 mph N/A   Clear
6:54 AM 41.0 °F 33.5 °F 24.8 °F 53% 30.02 in 10.0 mi South 13.8 mph 23.0 mph N/A   Clear
7:14 AM 39.2 °F 32.5 °F 26.6 °F 61% 30.03 in 10.0 mi SSE 10.4 mph 18.4 mph N/A   Clear
7:34 AM 37.4 °F 30.3 °F 24.8 °F 60% 30.03 in 10.0 mi SSE 10.4 mph - N/A   Clear
7:54 AM 35.6 °F 26.2 °F 24.8 °F 65% 30.02 in 10.0 mi SE 15.0 mph - N/A   Clear
8:14 AM 33.8 °F 24.8 °F 24.8 °F 70% 30.03 in 10.0 mi SSE 12.7 mph - N/A   Clear
8:34 AM 35.6 °F 26.6 °F 24.8 °F 65% 30.04 in 10.0 mi SSE 13.8 mph 18.4 mph N/A   Clear
8:54 AM 37.4 °F 27.2 °F 24.8 °F 60% 30.05 in 10.0 mi South 19.6 mph 24.2 mph N/A   Clear
9:14 AM 39.2 °F 29.6 °F 24.8 °F 56% 30.05 in 10.0 mi South 19.6 mph 28.8 mph N/A   Clear
9:54 AM 37.4 °F 28.9 °F 24.8 °F 60% 30.04 in 10.0 mi South 13.8 mph - N/A   Clear
10:14 AM 37.4 °F 28.5 °F 24.8 °F 60% 30.03 in 10.0 mi South 15.0 mph - N/A   Clear
10:34 AM 39.2 °F 30.5 °F 24.8 °F 56% 30.01 in 10.0 mi South 16.1 mph - N/A   Clear
10:54 AM 39.2 °F 30.5 °F 24.8 °F 56% 29.99 in 10.0 mi South 16.1 mph - N/A   Clear
11:14 AM 39.2 °F 29.6 °F 24.8 °F 56% 29.98 in 10.0 mi South 19.6 mph 25.3 mph N/A   Clear
11:34 AM 39.2 °F 30.8 °F 24.8 °F 56% 29.96 in 10.0 mi South 15.0 mph - N/A   Clear
11:54 AM 39.2 °F 30.2 °F 24.8 °F 56% 29.94 in 10.0 mi SSE 17.3 mph 21.9 mph N/A   Clear
12:14 PM 39.2 °F 29.8 °F 23.0 °F 52% 29.93 in 10.0 mi SSE 18.4 mph 21.9 mph N/A   Clear
12:34 PM 39.2 °F 31.2 °F 24.8 °F 56% 29.91 in 10.0 mi SSE 13.8 mph - N/A   Clear
12:54 PM 39.2 °F 32.0 °F 24.8 °F 56% 29.89 in 10.0 mi SSE 11.5 mph 20.7 mph N/A   Clear
1:34 PM 37.4 °F 28.9 °F 24.8 °F 60% 29.86 in 10.0 mi SSE 13.8 mph - N/A   Clear
1:54 PM 37.4 °F 29.3 °F 24.8 °F 60% 29.86 in 10.0 mi SE 12.7 mph - N/A   Clear
2:14 PM 35.6 °F 25.5 °F 24.8 °F 65% 29.86 in 10.0 mi SE 17.3 mph - N/A   Clear
2:34 PM 35.6 °F 25.5 °F 24.8 °F 65% 29.85 in 10.0 mi SE 17.3 mph - N/A   Scattered Clouds
2:54 PM 35.6 °F 24.5 °F 24.8 °F 65% 29.84 in 10.0 mi SE 20.7 mph - N/A   Scattered Clouds
3:13 PM 35.6 °F 25.2 °F 26.6 °F 70% 29.83 in 10.0 mi SSE 18.4 mph - N/A   Overcast
3:34 PM 35.6 °F 27.5 °F 26.6 °F 70% 29.83 in 10.0 mi SSE 11.5 mph - N/A Rain Light Rain
3:54 PM 33.8 °F 25.3 °F 28.4 °F 81% 29.82 in 3.0 mi SSE 11.5 mph 17.3 mph 0.01 in Rain Light Rain
4:14 PM 33.8 °F 23.5 °F 28.4 °F 81% 29.81 in 3.0 mi SE 16.1 mph - 0.02 in Rain Light Rain
4:34 PM 33.8 °F 23.9 °F 30.2 °F 87% 29.80 in 3.0 mi SE 15.0 mph - 0.04 in Rain Light Rain
4:54 PM 33.8 °F 23.5 °F 30.2 °F 87% 29.78 in 4.0 mi SE 16.1 mph - 0.07 in Rain Light Rain
5:14 PM 33.8 °F 22.5 °F 30.2 °F 87% 29.77 in 7.0 mi SE 19.6 mph - 0.02 in Rain Light Rain
5:34 PM 33.8 °F 22.8 °F 30.2 °F 87% 29.75 in 5.0 mi SE 18.4 mph - 0.04 in Rain Rain
5:54 PM 33.8 °F 22.2 °F 30.2 °F 87% 29.73 in 7.0 mi SE 20.7 mph 25.3 mph 0.06 in Rain Light Rain
6:14 PM 33.8 °F 21.9 °F 30.2 °F 87% 29.71 in 7.0 mi SE 21.9 mph - N/A Rain Light Rain
6:34 PM 32.0 °F 19.5 °F 30.2 °F 93% 29.70 in 7.0 mi SE 21.9 mph 29.9 mph 0.01 in Rain Light Rain
6:54 PM 32.0 °F 19.5 °F 28.4 °F 87% 29.70 in 5.0 mi SE 21.9 mph 28.8 mph 0.03 in   Overcast
7:14 PM 32.0 °F 19.2 °F 30.2 °F 93% 29.70 in 7.0 mi SE 23.0 mph 27.6 mph 0.01 in Rain Light Rain
7:33 PM 32.0 °F 21.2 °F 30.2 °F 93% 29.70 in 5.0 mi SSE 16.1 mph 26.5 mph 0.03 in Rain Light Rain
7:54 PM 32.0 °F 21.6 °F 30.2 °F 93% 29.69 in 4.0 mi SSE 15.0 mph 26.5 mph 0.04 in   Overcast
8:14 PM 32.0 °F 22.5 °F 30.2 °F 93% 29.68 in 5.0 mi SSE 12.7 mph 20.7 mph 0.01 in Rain Rain
8:33 PM 32.0 °F 22.1 °F 30.2 °F 93% 29.67 in 2.5 mi SSE 13.8 mph 21.9 mph 0.02 in   Overcast
8:54 PM 32.0 °F 22.1 °F 30.2 °F 93% 29.66 in 4.0 mi SSE 13.8 mph 19.6 mph 0.02 in   Light Drizzle
9:14 PM 32.0 °F 20.5 °F 30.2 °F 93% 29.64 in 2.5 mi SE 18.4 mph - 0.01 in   Drizzle
9:34 PM 32.0 °F 20.5 °F 30.2 °F 93% 29.62 in 4.0 mi SE 18.4 mph - 0.02 in Rain Light Rain
9:53 PM 32.0 °F 20.1 °F 30.2 °F 93% 29.61 in 3.0 mi SSE 19.6 mph - 0.02 in Rain Light Rain
10:14 PM 33.8 °F 24.8 °F 30.2 °F 87% 29.61 in 2.5 mi SSE 12.7 mph 18.4 mph 0.01 in   Light Drizzle
10:34 PM 33.8 °F 25.3 °F 30.2 °F 87% 29.60 in 1.8 mi SSE 11.5 mph 18.4 mph 0.01 in Rain Light Rain
11:14 PM 33.8 °F 25.8 °F 30.2 °F 87% 29.58 in 1.2 mi SSE 10.4 mph 18.4 mph N/A   Light Drizzle
11:54 PM 33.8 °F 24.3 °F 30.2 °F 87% 29.54 in 1.2 mi SSE 13.8 mph 18.4 mph N/A   Overcast